User: anonymous   Login
Location: Nelson
(41.2830°S, 173.2830°E)
Time: 16:19:05
(UTC+13:00)
Language:

BREEZE-M DEB (TANK) - Orbit

View from above orbital plane
View from above orbital plane
View from above satellite
View from above satellite

Ground track
Ground track

The orbit data is extracted from the following two-line orbital elements,

1 34712U 09016C   19078.20824029 +.00001820 +00000-0 +21676-3 0  9991
2 34712 046.0530 147.7308 5074185 317.3021 012.8728 05.52081743195372
Epoch (UTC): 19 March 2019 04:59:51
Eccentricity: 0.5074185
inclination: 46.0530°
perigee height: 283 km
apogee height: 14006 km
right ascension of ascending node: 147.7308°
argument of perigee: 317.3021°
revolutions per day: 5.52081743
mean anomaly at epoch: 12.8728°
orbit number at epoch: 19537

The dashed part of the orbit path shows where the satellite is in the earth's shadow,  

DLR